#timestamp,LO_Frequency,Hit,StdDev 
1509998415.3,286047021.5,N
1509998435.2,286047020.1,N
1509998455.0,286047023.0,N
1509998455.9,286047023.0,N
1509998475.8,286047023.4,N
1509998495.6,286047020.7,N
1509998515.4,286047022.6,N
1509998535.3,286047026.1,Y
1509998555.1,286047009.8,P
1509998575.8,286047006.4,N
1509998595.7,286047009.9,N
1509998615.5,286047014.0,N
1509998635.4,286047013.3,Y
1509998655.2,286047001.3,P
1509998675.0,286046998.9,N
1509998676.0,286046998.9,N
1509998695.8,286046998.5,N
1509998715.6,286047005.8,N
1509998735.5,286047007.0,N
1509998755.3,286047002.9,N
1509998775.1,286047003.6,N
1509998795.9,286047005.9,N
1509998815.7,286047006.0,N
1509998835.5,286047004.9,N
1509998855.4,286047003.4,N
1509998875.2,286047005.7,N
1509998895.0,286047002.9,N
1509998896.0,286047002.9,N
1509998915.8,286047002.9,N
1509998935.6,286047005.1,N
1509998955.5,286047005.4,N
1509998975.3,286047007.2,N
1509998995.1,286047008.7,N
1509999015.9,286047009.2,N
1509999035.7,286047010.5,Y
1509999055.5,286047000.0,P
1509999075.4,286046998.8,N
1509999095.2,286046999.7,N
1509999115.0,286047002.0,N
1509999115.9,286047002.0,N
1509999135.8,286047004.9,N
1509999155.6,286047006.1,N
1509999175.4,286047004.7,N
1509999195.3,286047008.7,Y
1509999215.1,286047004.1,P
1509999216.0,286047004.1,P
1509999235.8,286047003.8,P
1509999255.7,286047004.2,Y
1509999275.5,286046997.4,P
1509999295.3,286046998.5,N
1509999315.2,286046999.0,N
1509999335.9,286046997.3,N
1509999355.7,286047000.8,N
1509999375.6,286046998.8,N
1509999395.4,286046998.5,N
1509999415.2,286046998.2,N
1509999435.1,286046999.3,N
1509999436.0,286046999.3,N
1509999455.8,286046998.0,N
1509999475.7,286046992.3,Y
1509999495.5,286046989.4,P
1509999515.3,286046987.7,N
1509999535.2,286046987.7,N
1509999555.0,286046988.8,N
1509999555.9,286046988.8,N
1509999575.8,286046991.6,N
1509999595.6,286046987.0,Y
1509999615.4,286046995.9,P
1509999635.3,286046994.8,N
1509999655.1,286046994.3,N
1509999675.9,286046993.4,Y
1509999695.7,286046998.6,P
1509999715.6,286047001.2,N
1509999735.4,286047000.1,N
1509999755.2,286046998.4,N
1509999775.1,286046997.2,N
1509999776.0,286046997.2,N
1509999795.8,286046996.8,N
1509999815.7,286046995.4,N
1509999835.5,286046995.4,N
1509999855.3,286046996.9,N
1509999875.2,286047001.0,N
1509999895.9,286047004.3,N
1509999915.7,286047005.4,N
1509999935.6,286047005.2,N
1509999955.4,286047004.1,N
1509999975.3,286047003.8,N
1509999995.1,286047002.3,N
1509999996.0,286047002.3,N
1510000015.8,286046998.4,N
1510000035.7,286046998.7,N
1510000055.5,286047001.7,N
1510000075.3,286047001.4,N
1510000095.2,286047003.2,N
1510000115.0,286047007.4,N
1510000115.9,286047007.4,N
1510000135.7,286047003.0,N
1510000155.6,286047002.5,N
1510000175.4,286047000.2,N
1510000195.3,286046998.7,N
1510000215.1,286046998.9,N
1510000216.0,286046998.9,N
1510000235.8,286046999.3,N
1510000255.7,286046997.2,N
1510000275.5,286046997.4,N
1510000295.3,286046998.3,N
1510000315.2,286046998.2,N
1510000335.0,286047000.0,N
1510000335.9,286047000.0,N
1510000355.7,286046996.7,N
1510000375.6,286046996.9,N
1510000395.4,286046998.6,N
1510000415.3,286046999.6,N
1510000435.1,286046999.8,N
1510000455.8,286047004.2,N
1510000475.7,286047003.2,N
1510000495.5,286047000.2,N
1510000515.4,286046999.4,N
1510000535.2,286046999.1,N
1510000555.0,286046999.7,N
1510000555.9,286046999.7,N
1510000575.8,286047001.4,N
1510000595.6,286047000.1,N
1510000615.4,286046998.4,N
1510000635.3,286047000.1,N
1510000655.1,286047001.7,N
1510000675.8,286047000.4,N
1510000695.7,286046999.2,N
1510000715.5,286046998.2,N
1510000735.4,286046999.3,N
1510000755.2,286046993.3,Y
1510000775.0,286046996.9,P
1510000776.0,286046996.9,N
1510000795.8,286046996.6,N
1510000815.6,286046998.7,N
1510000835.5,286047002.5,N
1510000855.3,286047004.2,N
1510000875.1,286047003.6,N
1510000895.9,286047004.0,N
1510000915.7,286047003.6,N
1510000935.5,286047005.7,N
1510000955.4,286047005.2,N
1510000975.2,286047006.9,N
1510000995.0,286047005.3,N
1510000996.0,286047005.3,N
1510001015.8,286047001.4,N
1510001035.6,286047003.5,N
1510001055.5,286047005.4,N
1510001075.3,286047007.3,N
1510001095.1,286047006.3,N
1510001115.9,286047005.2,N
1510001135.7,286047004.7,N
1510001155.5,286047003.1,N
1510001175.4,286047004.0,N
1510001195.2,286047000.2,N
1510001215.0,286046997.5,N
1510001216.0,286046997.5,N
1510001235.8,286046995.5,N
1510001255.6,286046999.6,N
1510001275.5,286046998.6,N
1510001295.3,286047001.2,N
1510001315.1,286046998.7,N
1510001335.9,286047002.2,N
1510001355.7,286047002.4,N
1510001375.5,286047004.2,N
1510001395.4,286047003.1,N
1510001415.2,286047002.2,N
1510001435.1,286047002.8,N
1510001436.0,286047002.8,N
1510001455.8,286047002.6,N
1510001475.6,286046998.5,N
1510001495.5,286047002.3,N
1510001515.3,286047001.0,N
1510001535.1,286046998.3,N
1510001555.9,286046999.1,N
1510001575.7,286046995.1,N
1510001595.5,286046994.9,N
1510001615.4,286046997.4,N
1510001635.2,286046999.6,N
1510001655.1,286046998.7,N
1510001656.0,286046998.7,N
1510001675.8,286046998.3,N
1510001695.6,286047000.8,N
1510001715.5,286047002.3,N
1510001735.3,286047004.4,N
1510001755.1,286047003.0,N
1510001775.9,286047006.8,N
1510001795.7,286047009.8,Y
1510001815.6,286047009.2,P
1510001835.4,286047009.9,N
1510001855.2,286047010.1,N
1510001875.1,286047011.8,N
1510001876.0,286047011.8,N
1510001895.8,286047013.4,Y
1510001915.6,286047004.9,P
1510001935.5,286047004.5,N
1510001955.3,286047010.4,P
1510001975.2,286047013.9,Y
1510001995.9,286047006.5,P
